Simultaneous Nadir Overpasses (SNOs) Predictions

Prediction of SNOs between GOES-15 and METOP-A Satellite Orbit:

Table of predicted SNOs for the next 14.0 days since TLE Epoch: 4/16/2012
Index Date Time (GOES-15) GOES-15 Lat,Lon METOP-A Lat,Lon Distance(km) Time Diff (sec)
1 04/17/2012 18:25:54 -0.12,-134.66 -0.18,-134.28 43.70 80
2 04/19/2012 06:44:57 0.12,-134.67 -0.80,-138.89 480.35 80
3 04/20/2012 06:27:00 0.12,-134.71 0.30,-133.90 91.87 80
4 04/21/2012 18:45:56 -0.12,-134.81 0.69,-138.48 418.18 80
5 04/22/2012 18:22:40 -0.12,-134.84 -0.42,-133.50 152.79 80
6 04/24/2012 06:41:45 0.12,-134.83 -0.63,-138.11 374.20 80
7 04/25/2012 06:23:50 0.13,-134.86 0.54,-133.15 196.20 80
8 04/26/2012 18:42:49 -0.13,-134.96 0.51,-137.73 316.24 80
9 04/27/2012 18:19:34
